Time,TemperatureF,DewpointF,PressureIn,WindDirection,WindDirectionDegrees,WindSpeedMPH,WindSpeedGustMPH,Humidity,HourlyPrecipIn,Conditions,Clouds,dailyrainin,SoftwareType,DateUTC
2013-05-04 00:00:00,55.6,50.2,30.12,NNE,26,11.0,11.0,82,0.00,,,0.00,Wunderground v.1.15,2013-05-04 04:00:00,
2013-05-04 00:05:00,55.5,50.1,30.12,NNE,30,10.0,12.0,82,0.00,,,0.00,Wunderground v.1.15,2013-05-04 04:05:00,
2013-05-04 00:10:00,55.4,50.0,30.11,ENE,60,10.0,10.0,82,0.00,,,0.00,Wunderground v.1.15,2013-05-04 04:10:00,
2013-05-04 00:15:00,55.3,49.9,30.12,ENE,57,11.0,11.0,82,0.00,,,0.00,Wunderground v.1.15,2013-05-04 04:15:00,
2013-05-04 00:20:00,55.2,49.8,30.11,NE,52,10.0,10.0,82,0.00,,,0.00,Wunderground v.1.15,2013-05-04 04:20:00,
2013-05-04 00:25:00,55.2,50.1,30.11,NE,50,10.0,20.0,83,0.00,,,0.00,Wunderground v.1.15,2013-05-04 04:25:00,
2013-05-04 00:30:00,55.1,50.0,30.11,NNE,26,9.0,20.0,83,0.00,,,0.00,Wunderground v.1.15,2013-05-04 04:30:00,
2013-05-04 00:35:00,55.1,50.0,30.11,East,89,9.0,20.0,83,0.00,,,0.00,Wunderground v.1.15,2013-05-04 04:35:00,
2013-05-04 00:40:00,55.0,50.3,30.11,NE,56,8.0,20.0,84,0.00,,,0.00,Wunderground v.1.15,2013-05-04 04:40:00,
2013-05-04 00:45:00,54.9,50.2,30.11,ENE,72,7.0,20.0,84,0.00,,,0.00,Wunderground v.1.15,2013-05-04 04:45:00,
2013-05-04 00:50:00,54.9,50.2,30.11,ENE,62,7.0,7.0,84,0.00,,,0.00,Wunderground v.1.15,2013-05-04 04:50:00,
2013-05-04 00:55:00,54.7,50.0,30.11,NE,52,6.0,8.0,84,0.00,,,0.00,Wunderground v.1.15,2013-05-04 04:55:00,
2013-05-04 01:00:00,54.7,50.0,30.10,NE,50,7.0,7.0,84,0.00,,,0.00,Wunderground v.1.15,2013-05-04 05:00:00,
2013-05-04 01:10:00,54.6,49.9,30.10,ENE,61,8.0,8.0,84,0.00,,,0.00,Wunderground v.1.15,2013-05-04 05:10:00,
2013-05-04 01:15:00,54.6,49.9,30.10,East,83,8.0,9.0,84,0.00,,,0.00,Wunderground v.1.15,2013-05-04 05:15:00,
2013-05-04 01:20:00,54.6,50.2,30.10,NNE,27,8.0,19.0,85,0.00,,,0.00,Wunderground v.1.15,2013-05-04 05:20:00,
2013-05-04 01:25:00,54.5,50.1,30.10,NE,42,8.0,19.0,85,0.00,,,0.00,Wunderground v.1.15,2013-05-04 05:25:00,
2013-05-04 01:30:00,54.5,50.1,30.09,East,79,7.0,19.0,85,0.00,,,0.00,Wunderground v.1.15,2013-05-04 05:30:00,
2013-05-04 01:40:00,54.5,50.1,30.09,East,91,7.0,7.0,85,0.00,,,0.00,Wunderground v.1.15,2013-05-04 05:40:00,
2013-05-04 01:45:00,54.5,50.1,30.09,ENE,71,7.0,8.0,85,0.00,,,0.00,Wunderground v.1.15,2013-05-04 05:45:00,
2013-05-04 01:50:00,54.4,50.0,30.09,ENE,60,7.0,19.0,85,0.00,,,0.00,Wunderground v.1.15,2013-05-04 05:50:00,
2013-05-04 01:55:00,54.4,50.0,30.09,ENE,59,8.0,19.0,85,0.00,,,0.00,Wunderground v.1.15,2013-05-04 05:55:00,
2013-05-04 02:00:00,54.3,49.9,30.09,ENE,63,7.0,18.0,85,0.00,,,0.00,Wunderground v.1.15,2013-05-04 06:00:00,
2013-05-04 02:10:00,54.3,49.9,30.08,NNE,33,8.0,8.0,85,0.00,,,0.00,Wunderground v.1.15,2013-05-04 06:10:00,
2013-05-04 02:15:00,54.3,50.2,30.08,NE,37,8.0,18.0,86,0.00,,,0.00,Wunderground v.1.15,2013-05-04 06:15:00,
2013-05-04 02:20:00,54.4,50.3,30.08,ENE,74,8.0,8.0,86,0.00,,,0.00,Wunderground v.1.15,2013-05-04 06:20:00,
2013-05-04 02:25:00,54.4,50.3,30.08,ENE,63,8.0,10.0,86,0.00,,,0.00,Wunderground v.1.15,2013-05-04 06:25:00,
2013-05-04 02:35:00,54.6,50.5,30.07,NE,49,11.0,18.0,86,0.00,,,0.00,Wunderground v.1.15,2013-05-04 06:35:00,
2013-05-04 02:40:00,54.8,50.7,30.07,ENE,73,10.0,18.0,86,0.00,,,0.00,Wunderground v.1.15,2013-05-04 06:40:00,
2013-05-04 02:45:00,55.0,50.9,30.07,NNE,30,10.0,18.0,86,0.00,,,0.00,Wunderground v.1.15,2013-05-04 06:45:00,
2013-05-04 02:50:00,55.1,51.0,30.07,NE,48,11.0,11.0,86,0.00,,,0.00,Wunderground v.1.15,2013-05-04 06:50:00,
2013-05-04 02:55:00,55.2,51.1,30.07,ENE,68,10.0,12.0,86,0.00,,,0.00,Wunderground v.1.15,2013-05-04 06:55:00,
2013-05-04 03:00:00,55.3,51.2,30.07,NNE,23,9.0,16.0,86,0.00,,,0.00,Wunderground v.1.15,2013-05-04 07:00:00,
2013-05-04 03:05:00,55.3,51.2,30.06,ENE,62,9.0,16.0,86,0.00,,,0.00,Wunderground v.1.15,2013-05-04 07:05:00,
2013-05-04 03:15:00,55.3,51.2,30.06,NE,46,8.0,16.0,86,0.00,,,0.00,Wunderground v.1.15,2013-05-04 07:15:00,
2013-05-04 03:20:00,55.3,51.2,30.06,ENE,71,8.0,16.0,86,0.00,,,0.00,Wunderground v.1.15,2013-05-04 07:20:00,
2013-05-04 03:25:00,55.2,51.1,30.06,North,350,8.0,16.0,86,0.00,,,0.00,Wunderground v.1.15,2013-05-04 07:25:00,
2013-05-04 03:30:00,55.1,51.0,30.06,NE,56,8.0,16.0,86,0.00,,,0.00,Wunderground v.1.15,2013-05-04 07:30:00,
2013-05-04 03:35:00,55.1,51.0,30.06,ENE,65,9.0,16.0,86,0.00,,,0.00,Wunderground v.1.15,2013-05-04 07:35:00,
2013-05-04 03:40:00,55.0,51.2,30.06,NE,40,9.0,9.0,87,0.00,,,0.00,Wunderground v.1.15,2013-05-04 07:40:00,
2013-05-04 03:45:00,54.9,51.1,30.06,East,81,9.0,16.0,87,0.00,,,0.00,Wunderground v.1.15,2013-05-04 07:45:00,
2013-05-04 03:50:00,54.8,51.0,30.06,NE,56,9.0,16.0,87,0.00,,,0.00,Wunderground v.1.15,2013-05-04 07:50:00,
2013-05-04 03:55:00,54.7,50.9,30.06,NNE,30,8.0,16.0,87,0.00,,,0.00,Wunderground v.1.15,2013-05-04 07:55:00,
2013-05-04 04:00:00,54.5,51.0,30.06,NE,46,9.0,19.0,88,0.00,,,0.00,Wunderground v.1.15,2013-05-04 08:00:00,
2013-05-04 04:05:00,54.3,50.8,30.06,NE,53,9.0,19.0,88,0.00,,,0.00,Wunderground v.1.15,2013-05-04 08:05:00,
2013-05-04 04:10:00,54.3,50.8,30.06,ENE,63,9.0,9.0,88,0.00,,,0.00,Wunderground v.1.15,2013-05-04 08:10:00,
2013-05-04 04:15:00,54.3,51.1,30.06,ENE,68,8.0,10.0,89,0.00,,,0.00,Wunderground v.1.15,2013-05-04 08:15:00,
2013-05-04 04:20:00,54.3,51.1,30.06,NE,41,8.0,8.0,89,0.00,,,0.00,Wunderground v.1.15,2013-05-04 08:20:00,
2013-05-04 04:25:00,54.3,51.1,30.06,ENE,58,9.0,9.0,89,0.00,,,0.00,Wunderground v.1.15,2013-05-04 08:25:00,
2013-05-04 04:30:00,54.2,51.0,30.06,ENE,57,9.0,9.0,89,0.00,,,0.00,Wunderground v.1.15,2013-05-04 08:30:00,
2013-05-04 04:35:00,54.2,51.0,30.06,NE,39,8.0,19.0,89,0.00,,,0.00,Wunderground v.1.15,2013-05-04 08:35:00,
2013-05-04 04:40:00,54.2,51.0,30.06,East,91,9.0,9.0,89,0.00,,,0.00,Wunderground v.1.15,2013-05-04 08:40:00,
2013-05-04 04:45:00,54.3,51.1,30.06,ENE,58,9.0,16.0,89,0.00,,,0.00,Wunderground v.1.15,2013-05-04 08:45:00,
2013-05-04 04:50:00,54.2,51.0,30.05,North,7,9.0,9.0,89,0.00,,,0.00,Wunderground v.1.15,2013-05-04 08:50:00,
2013-05-04 04:55:00,54.1,50.9,30.05,NNE,16,8.0,14.0,89,0.00,,,0.00,Wunderground v.1.15,2013-05-04 08:55:00,
2013-05-04 05:00:00,54.0,50.8,30.05,NNW,338,9.0,9.0,89,0.00,,,0.00,Wunderground v.1.15,2013-05-04 09:00:00,
2013-05-04 05:05:00,53.9,50.7,30.05,North,349,8.0,19.0,89,0.00,,,0.00,Wunderground v.1.15,2013-05-04 09:05:00,
2013-05-04 05:10:00,53.9,50.7,30.05,NNE,27,8.0,8.0,89,0.00,,,0.00,Wunderground v.1.15,2013-05-04 09:10:00,
2013-05-04 05:15:00,53.9,50.7,30.05,ENE,62,9.0,9.0,89,0.00,,,0.00,Wunderground v.1.15,2013-05-04 09:15:00,
2013-05-04 05:20:00,54.0,50.8,30.05,North,9,9.0,9.0,89,0.00,,,0.00,Wunderground v.1.15,2013-05-04 09:20:00,
2013-05-04 05:25:00,54.1,50.9,30.05,NE,53,8.0,19.0,89,0.00,,,0.00,Wunderground v.1.15,2013-05-04 09:25:00,
2013-05-04 05:30:00,54.2,51.0,30.05,East,83,9.0,19.0,89,0.00,,,0.00,Wunderground v.1.15,2013-05-04 09:30:00,
2013-05-04 05:35:00,54.2,51.0,30.05,NE,47,10.0,19.0,89,0.00,,,0.00,Wunderground v.1.15,2013-05-04 09:35:00,
2013-05-04 05:40:00,54.2,51.0,30.05,ENE,67,10.0,10.0,89,0.00,,,0.00,Wunderground v.1.15,2013-05-04 09:40:00,
2013-05-04 05:45:00,54.2,51.0,30.05,NNE,18,10.0,13.0,89,0.00,,,0.00,Wunderground v.1.15,2013-05-04 09:45:00,
2013-05-04 05:50:00,54.3,51.4,30.05,North,9,10.0,10.0,90,0.00,,,0.00,Wunderground v.1.15,2013-05-04 09:50:00,
2013-05-04 05:55:00,54.2,51.3,30.06,NNE,20,10.0,19.0,90,0.00,,,0.00,Wunderground v.1.15,2013-05-04 09:55:00,
2013-05-04 06:00:00,54.3,51.4,30.06,ENE,64,10.0,10.0,90,0.00,,,0.00,Wunderground v.1.15,2013-05-04 10:00:00,
2013-05-04 06:05:00,54.3,51.4,30.06,ENE,77,9.0,20.0,90,0.00,,,0.00,Wunderground v.1.15,2013-05-04 10:05:00,
2013-05-04 06:10:00,54.5,51.6,30.06,NE,52,9.0,20.0,90,0.00,,,0.00,Wunderground v.1.15,2013-05-04 10:10:00,
2013-05-04 06:15:00,54.5,51.6,30.06,NNE,30,10.0,20.0,90,0.00,,,0.00,Wunderground v.1.15,2013-05-04 10:15:00,
2013-05-04 06:20:00,54.6,51.7,30.06,NE,49,11.0,20.0,90,0.00,,,0.00,Wunderground v.1.15,2013-05-04 10:20:00,
2013-05-04 06:25:00,54.7,51.5,30.06,North,8,10.0,20.0,89,0.00,,,0.00,Wunderground v.1.15,2013-05-04 10:25:00,
2013-05-04 06:30:00,54.8,51.6,30.06,NE,44,10.0,10.0,89,0.00,,,0.00,Wunderground v.1.15,2013-05-04 10:30:00,
2013-05-04 06:40:00,54.9,51.7,30.06,NE,48,10.0,10.0,89,0.00,,,0.00,Wunderground v.1.15,2013-05-04 10:40:00,
2013-05-04 06:45:00,55.0,51.8,30.06,NE,46,10.0,20.0,89,0.00,,,0.00,Wunderground v.1.15,2013-05-04 10:45:00,
2013-05-04 06:50:00,55.1,51.9,30.06,NNE,33,10.0,20.0,89,0.00,,,0.00,Wunderground v.1.15,2013-05-04 10:50:00,
2013-05-04 06:55:00,55.1,51.9,30.06,NNE,33,10.0,20.0,89,0.00,,,0.00,Wunderground v.1.15,2013-05-04 10:55:00,
2013-05-04 07:00:00,55.2,52.0,30.06,North,6,10.0,10.0,89,0.00,,,0.00,Wunderground v.1.15,2013-05-04 11:00:00,
2013-05-04 07:10:00,55.3,52.1,30.06,North,11,9.0,21.0,89,0.00,,,0.00,Wunderground v.1.15,2013-05-04 11:10:00,
2013-05-04 07:15:00,55.4,52.2,30.07,NE,48,9.0,21.0,89,0.00,,,0.00,Wunderground v.1.15,2013-05-04 11:15:00,
2013-05-04 07:20:00,55.3,52.1,30.06,NE,54,10.0,10.0,89,0.00,,,0.00,Wunderground v.1.15,2013-05-04 11:20:00,
2013-05-04 07:30:00,55.4,51.9,30.07,ENE,62,11.0,21.0,88,0.00,,,0.00,Wunderground v.1.15,2013-05-04 11:30:00,
2013-05-04 07:35:00,55.5,52.0,30.07,East,87,12.0,21.0,88,0.00,,,0.00,Wunderground v.1.15,2013-05-04 11:35:00,
2013-05-04 07:40:00,55.5,52.0,30.07,NE,39,12.0,12.0,88,0.00,,,0.00,Wunderground v.1.15,2013-05-04 11:40:00,
2013-05-04 07:45:00,55.5,51.7,30.07,NE,56,12.0,14.0,87,0.00,,,0.00,Wunderground v.1.15,2013-05-04 11:45:00,
2013-05-04 07:50:00,55.7,51.9,30.06,NE,40,13.0,21.0,87,0.00,,,0.00,Wunderground v.1.15,2013-05-04 11:50:00,
2013-05-04 07:55:00,55.8,52.0,30.06,ENE,77,13.0,21.0,87,0.00,,,0.00,Wunderground v.1.15,2013-05-04 11:55:00,
2013-05-04 08:00:00,55.9,52.1,30.06,NNE,13,12.0,21.0,87,0.00,,,0.00,Wunderground v.1.15,2013-05-04 12:00:00,
2013-05-04 08:05:00,55.9,52.1,30.06,NE,54,12.0,21.0,87,0.00,,,0.00,Wunderground v.1.15,2013-05-04 12:05:00,
2013-05-04 08:10:00,56.0,51.9,30.07,ENE,58,13.0,13.0,86,0.00,,,0.00,Wunderground v.1.15,2013-05-04 12:10:00,
2013-05-04 08:15:00,56.1,52.0,30.07,ENE,71,12.0,18.0,86,0.00,,,0.00,Wunderground v.1.15,2013-05-04 12:15:00,
2013-05-04 08:20:00,56.2,52.1,30.07,ENE,63,12.0,21.0,86,0.00,,,0.00,Wunderground v.1.15,2013-05-04 12:20:00,
2013-05-04 08:30:00,56.6,52.5,30.07,ENE,58,11.0,21.0,86,0.00,,,0.00,Wunderground v.1.15,2013-05-04 12:30:00,
2013-05-04 08:35:00,56.9,52.4,30.07,NNE,33,11.0,21.0,85,0.00,,,0.00,Wunderground v.1.15,2013-05-04 12:35:00,
2013-05-04 08:40:00,57.2,52.7,30.07,ENE,58,12.0,12.0,85,0.00,,,0.00,Wunderground v.1.15,2013-05-04 12:40:00,
2013-05-04 08:45:00,57.2,52.4,30.07,NNE,20,12.0,21.0,84,0.00,,,0.00,Wunderground v.1.15,2013-05-04 12:45:00,
2013-05-04 08:50:00,57.3,52.5,30.07,NE,52,12.0,12.0,84,0.00,,,0.00,Wunderground v.1.15,2013-05-04 12:50:00,
2013-05-04 08:55:00,57.5,52.7,30.07,ENE,69,11.0,21.0,84,0.00,,,0.00,Wunderground v.1.15,2013-05-04 12:55:00,
2013-05-04 09:00:00,57.9,53.1,30.07,East,79,11.0,11.0,84,0.00,,,0.00,Wunderground v.1.15,2013-05-04 13:00:00,
2013-05-04 09:10:00,58.5,53.0,30.07,ENE,61,12.0,12.0,82,0.00,,,0.00,Wunderground v.1.15,2013-05-04 13:10:00,
2013-05-04 09:15:00,58.4,52.9,30.07,ENE,58,12.0,22.0,82,0.00,,,0.00,Wunderground v.1.15,2013-05-04 13:15:00,
2013-05-04 09:20:00,58.4,52.9,30.07,NE,49,12.0,12.0,82,0.00,,,0.00,Wunderground v.1.15,2013-05-04 13:20:00,
2013-05-04 09:25:00,58.4,52.9,30.06,NE,53,12.0,14.0,82,0.00,,,0.00,Wunderground v.1.15,2013-05-04 13:25:00,
2013-05-04 09:30:00,58.5,53.0,30.06,NE,44,11.0,11.0,82,0.00,,,0.00,Wunderground v.1.15,2013-05-04 13:30:00,
2013-05-04 09:35:00,58.8,53.3,30.07,ENE,77,12.0,20.0,82,0.00,,,0.00,Wunderground v.1.15,2013-05-04 13:35:00,
2013-05-04 09:40:00,58.8,53.3,30.07,NNE,13,12.0,12.0,82,0.00,,,0.00,Wunderground v.1.15,2013-05-04 13:40:00,
2013-05-04 09:45:00,58.9,53.1,30.07,NE,41,12.0,15.0,81,0.00,,,0.00,Wunderground v.1.15,2013-05-04 13:45:00,
2013-05-04 09:50:00,59.3,53.8,30.07,NNW,343,11.0,11.0,82,0.00,,,0.00,Wunderground v.1.15,2013-05-04 13:50:00,
2013-05-04 09:55:00,59.5,53.7,30.07,NE,53,11.0,12.0,81,0.00,,,0.00,Wunderground v.1.15,2013-05-04 13:55:00,
2013-05-04 10:00:00,60.1,54.2,30.07,NNE,22,11.0,11.0,81,0.00,,,0.00,Wunderground v.1.15,2013-05-04 14:00:00,
2013-05-04 10:05:00,60.2,54.0,30.07,NE,46,10.0,12.0,80,0.00,,,0.00,Wunderground v.1.15,2013-05-04 14:05:00,
2013-05-04 10:10:00,60.3,54.1,30.07,NNW,336,11.0,23.0,80,0.00,,,0.00,Wunderground v.1.15,2013-05-04 14:10:00,
2013-05-04 10:15:00,60.7,54.5,30.07,ENE,72,11.0,23.0,80,0.00,,,0.00,Wunderground v.1.15,2013-05-04 14:15:00,
2013-05-04 10:20:00,60.9,54.3,30.07,ENE,72,11.0,11.0,79,0.00,,,0.00,Wunderground v.1.15,2013-05-04 14:20:00,
2013-05-04 10:25:00,61.3,54.7,30.07,ENE,74,11.0,23.0,79,0.00,,,0.00,Wunderground v.1.15,2013-05-04 14:25:00,
2013-05-04 10:30:00,61.5,54.9,30.07,SE,135,11.0,11.0,79,0.00,,,0.00,Wunderground v.1.15,2013-05-04 14:30:00,
2013-05-04 10:55:00,62.5,55.2,30.06,ENE,68,10.0,23.0,77,0.00,,,0.00,Wunderground v.1.15,2013-05-04 14:55:00,
2013-05-04 11:00:00,62.6,54.9,30.06,NE,55,10.0,22.0,76,0.00,,,0.00,Wunderground v.1.15,2013-05-04 15:00:00,
2013-05-04 11:05:00,62.8,55.1,30.06,ESE,121,10.0,22.0,76,0.00,,,0.00,Wunderground v.1.15,2013-05-04 15:05:00,
2013-05-04 11:10:00,63.0,55.3,30.06,NE,53,10.0,22.0,76,0.00,,,0.00,Wunderground v.1.15,2013-05-04 15:10:00,
2013-05-04 11:15:00,63.0,55.3,30.06,ENE,67,10.0,22.0,76,0.00,,,0.00,Wunderground v.1.15,2013-05-04 15:15:00,
2013-05-04 11:20:00,63.1,55.4,30.06,NE,43,11.0,22.0,76,0.00,,,0.00,Wunderground v.1.15,2013-05-04 15:20:00,
2013-05-04 11:25:00,63.5,55.8,30.05,East,82,10.0,22.0,76,0.00,,,0.00,Wunderground v.1.15,2013-05-04 15:25:00,
2013-05-04 11:30:00,64.3,55.8,30.05,ENE,59,9.0,22.0,74,0.00,,,0.00,Wunderground v.1.15,2013-05-04 15:30:00,
2013-05-04 11:35:00,64.3,55.5,30.06,ENE,58,9.0,22.0,73,0.00,,,0.00,Wunderground v.1.15,2013-05-04 15:35:00,
2013-05-04 11:40:00,64.7,55.8,30.06,ENE,58,10.0,22.0,73,0.00,,,0.00,Wunderground v.1.15,2013-05-04 15:40:00,
2013-05-04 11:45:00,64.7,55.8,30.06,East,84,11.0,22.0,73,0.00,,,0.00,Wunderground v.1.15,2013-05-04 15:45:00,
2013-05-04 11:50:00,64.7,55.5,30.06,NE,43,12.0,22.0,72,0.00,,,0.00,Wunderground v.1.15,2013-05-04 15:50:00,
2013-05-04 11:55:00,65.2,56.3,30.06,NNE,23,12.0,22.0,73,0.00,,,0.00,Wunderground v.1.15,2013-05-04 15:55:00,
2013-05-04 12:00:00,65.8,56.5,30.06,NNE,32,11.0,20.0,72,0.00,,,0.00,Wunderground v.1.15,2013-05-04 16:00:00,
2013-05-04 12:10:00,66.0,56.3,30.06,ENE,66,11.0,11.0,71,0.00,,,0.00,Wunderground v.1.15,2013-05-04 16:10:00,
2013-05-04 12:15:00,66.2,56.9,30.05,NE,53,10.0,20.0,72,0.00,,,0.00,Wunderground v.1.15,2013-05-04 16:15:00,
2013-05-04 12:20:00,66.5,57.2,30.05,NE,56,11.0,20.0,72,0.00,,,0.00,Wunderground v.1.15,2013-05-04 16:20:00,
2013-05-04 12:25:00,65.8,56.9,30.05,NE,49,12.0,20.0,73,0.00,,,0.00,Wunderground v.1.15,2013-05-04 16:25:00,
2013-05-04 12:30:00,66.0,57.8,30.05,East,85,11.0,11.0,75,0.00,,,0.00,Wunderground v.1.15,2013-05-04 16:30:00,
2013-05-04 12:35:00,66.0,57.1,30.05,NE,36,9.0,15.0,73,0.00,,,0.00,Wunderground v.1.15,2013-05-04 16:35:00,
2013-05-04 12:40:00,66.0,55.5,30.05,East,97,11.0,20.0,69,0.00,,,0.00,Wunderground v.1.15,2013-05-04 16:40:00,
2013-05-04 12:45:00,66.2,56.1,30.05,ENE,67,12.0,20.0,70,0.00,,,0.00,Wunderground v.1.15,2013-05-04 16:45:00,
2013-05-04 12:50:00,66.0,55.9,30.05,East,92,11.0,20.0,70,0.00,,,0.00,Wunderground v.1.15,2013-05-04 16:50:00,
2013-05-04 12:55:00,66.2,56.9,30.05,NE,49,12.0,20.0,72,0.00,,,0.00,Wunderground v.1.15,2013-05-04 16:55:00,
2013-05-04 13:00:00,65.9,56.2,30.04,ENE,75,11.0,23.0,71,0.00,,,0.00,Wunderground v.1.15,2013-05-04 17:00:00,
2013-05-04 13:10:00,66.1,56.8,30.05,NE,44,11.0,11.0,72,0.00,,,0.00,Wunderground v.1.15,2013-05-04 17:10:00,
2013-05-04 13:15:00,66.0,55.9,30.05,NNE,30,10.0,23.0,70,0.00,,,0.00,Wunderground v.1.15,2013-05-04 17:15:00,
2013-05-04 13:20:00,66.1,56.4,30.05,NE,53,10.0,23.0,71,0.00,,,0.00,Wunderground v.1.15,2013-05-04 17:20:00,
2013-05-04 13:25:00,66.1,56.4,30.05,ENE,64,10.0,23.0,71,0.00,,,0.00,Wunderground v.1.15,2013-05-04 17:25:00,
2013-05-04 13:30:00,66.1,56.4,30.05,NE,46,11.0,11.0,71,0.00,,,0.00,Wunderground v.1.15,2013-05-04 17:30:00,
2013-05-04 13:35:00,66.1,56.4,30.04,ENE,61,11.0,16.0,71,0.00,,,0.00,Wunderground v.1.15,2013-05-04 17:35:00,
2013-05-04 13:40:00,65.8,56.9,30.04,East,90,11.0,23.0,73,0.00,,,0.00,Wunderground v.1.15,2013-05-04 17:40:00,
2013-05-04 13:45:00,65.3,57.2,30.04,ENE,57,11.0,23.0,75,0.00,,,0.00,Wunderground v.1.15,2013-05-04 17:45:00,
2013-05-04 13:50:00,65.9,57.4,30.04,NE,51,10.0,23.0,74,0.00,,,0.00,Wunderground v.1.15,2013-05-04 17:50:00,
2013-05-04 13:55:00,66.5,56.8,30.04,NE,49,10.0,23.0,71,0.00,,,0.00,Wunderground v.1.15,2013-05-04 17:55:00,
2013-05-04 14:00:00,65.9,57.0,30.04,ESE,109,11.0,18.0,73,0.00,,,0.00,Wunderground v.1.15,2013-05-04 18:00:00,
2013-05-04 14:05:00,65.3,57.2,30.04,East,80,13.0,18.0,75,0.00,,,0.00,Wunderground v.1.15,2013-05-04 18:05:00,
2013-05-04 14:10:00,64.6,57.6,30.03,East,82,15.0,15.0,78,0.00,,,0.00,Wunderground v.1.15,2013-05-04 18:10:00,
2013-05-04 14:15:00,64.5,57.5,30.03,ENE,75,14.0,18.0,78,0.00,,,0.00,Wunderground v.1.15,2013-05-04 18:15:00,
2013-05-04 14:20:00,64.5,57.5,30.03,ESE,107,13.0,13.0,78,0.00,,,0.00,Wunderground v.1.15,2013-05-04 18:20:00,
2013-05-04 14:25:00,64.7,57.7,30.03,East,84,13.0,18.0,78,0.00,,,0.00,Wunderground v.1.15,2013-05-04 18:25:00,
2013-05-04 14:30:00,64.9,57.9,30.03,ENE,70,14.0,18.0,78,0.00,,,0.00,Wunderground v.1.15,2013-05-04 18:30:00,
2013-05-04 14:35:00,65.4,57.6,30.03,East,79,14.0,18.0,76,0.00,,,0.00,Wunderground v.1.15,2013-05-04 18:35:00,
2013-05-04 14:40:00,65.4,57.6,30.03,NE,47,14.0,18.0,76,0.00,,,0.00,Wunderground v.1.15,2013-05-04 18:40:00,
2013-05-04 14:45:00,64.9,57.5,30.04,East,81,15.0,18.0,77,0.00,,,0.00,Wunderground v.1.15,2013-05-04 18:45:00,
2013-05-04 14:50:00,64.7,57.0,30.03,East,101,14.0,18.0,76,0.00,,,0.00,Wunderground v.1.15,2013-05-04 18:50:00,
2013-05-04 14:55:00,64.2,57.5,30.03,ENE,67,14.0,18.0,79,0.00,,,0.00,Wunderground v.1.15,2013-05-04 18:55:00,
2013-05-04 15:00:00,63.6,57.3,30.04,East,82,15.0,15.0,80,0.00,,,0.00,Wunderground v.1.15,2013-05-04 19:00:00,
2013-05-04 15:10:00,62.5,57.6,30.03,NE,47,15.0,24.0,84,0.00,,,0.00,Wunderground v.1.15,2013-05-04 19:10:00,
2013-05-04 15:15:00,62.2,57.6,30.02,East,98,14.0,24.0,85,0.00,,,0.00,Wunderground v.1.15,2013-05-04 19:15:00,
2013-05-04 15:20:00,61.7,57.5,30.02,ESE,117,16.0,16.0,86,0.00,,,0.00,Wunderground v.1.15,2013-05-04 19:20:00,
2013-05-04 15:25:00,61.4,57.2,30.03,East,91,16.0,24.0,86,0.00,,,0.00,Wunderground v.1.15,2013-05-04 19:25:00,
2013-05-04 15:30:00,61.2,57.3,30.03,East,80,15.0,15.0,87,0.00,,,0.00,Wunderground v.1.15,2013-05-04 19:30:00,
2013-05-04 15:35:00,61.0,57.1,30.03,East,98,12.0,24.0,87,0.00,,,0.00,Wunderground v.1.15,2013-05-04 19:35:00,
2013-05-04 15:45:00,61.3,57.1,30.02,East,86,10.0,14.0,86,0.00,,,0.00,Wunderground v.1.15,2013-05-04 19:45:00,
2013-05-04 15:50:00,62.0,57.8,30.02,ESE,106,9.0,24.0,86,0.00,,,0.00,Wunderground v.1.15,2013-05-04 19:50:00,
2013-05-04 15:55:00,62.7,58.1,30.02,NE,44,9.0,24.0,85,0.00,,,0.00,Wunderground v.1.15,2013-05-04 19:55:00,
2013-05-04 16:00:00,63.1,57.5,30.02,ESE,112,11.0,24.0,82,0.00,,,0.00,Wunderground v.1.15,2013-05-04 20:00:00,
2013-05-04 16:05:00,63.1,57.9,30.02,East,83,13.0,24.0,83,0.00,,,0.00,Wunderground v.1.15,2013-05-04 20:05:00,
2013-05-04 16:10:00,62.9,57.3,30.02,East,94,14.0,14.0,82,0.00,,,0.00,Wunderground v.1.15,2013-05-04 20:10:00,
2013-05-04 16:15:00,63.1,57.9,30.01,East,92,14.0,17.0,83,0.00,,,0.00,Wunderground v.1.15,2013-05-04 20:15:00,
2013-05-04 16:20:00,63.0,58.1,30.01,East,81,13.0,24.0,84,0.00,,,0.00,Wunderground v.1.15,2013-05-04 20:20:00,
2013-05-04 16:25:00,62.8,58.2,30.01,ENE,57,12.0,24.0,85,0.00,,,0.00,Wunderground v.1.15,2013-05-04 20:25:00,
2013-05-04 16:30:00,62.7,58.1,30.02,ENE,63,12.0,12.0,85,0.00,,,0.00,Wunderground v.1.15,2013-05-04 20:30:00,
2013-05-04 16:35:00,62.6,58.4,30.01,ENE,61,12.0,16.0,86,0.00,,,0.00,Wunderground v.1.15,2013-05-04 20:35:00,
2013-05-04 16:40:00,62.5,58.3,30.01,NE,51,12.0,12.0,86,0.00,,,0.00,Wunderground v.1.15,2013-05-04 20:40:00,
2013-05-04 16:45:00,62.5,58.3,30.01,ENE,63,11.0,24.0,86,0.00,,,0.00,Wunderground v.1.15,2013-05-04 20:45:00,
2013-05-04 16:50:00,63.0,58.1,30.02,NE,46,8.0,8.0,84,0.00,,,0.00,Wunderground v.1.15,2013-05-04 20:50:00,
2013-05-04 16:55:00,63.2,57.6,30.01,ENE,57,8.0,24.0,82,0.00,,,0.00,Wunderground v.1.15,2013-05-04 20:55:00,
2013-05-04 17:00:00,63.4,57.5,30.01,ENE,78,9.0,24.0,81,0.00,,,0.00,Wunderground v.1.15,2013-05-04 21:00:00,
2013-05-04 17:05:00,63.3,57.0,30.01,ENE,61,10.0,24.0,80,0.00,,,0.00,Wunderground v.1.15,2013-05-04 21:05:00,
2013-05-04 17:10:00,63.3,57.4,30.01,ENE,77,11.0,11.0,81,0.00,,,0.00,Wunderground v.1.15,2013-05-04 21:10:00,
2013-05-04 17:15:00,63.4,57.5,30.01,NE,44,11.0,24.0,81,0.00,,,0.00,Wunderground v.1.15,2013-05-04 21:15:00,
2013-05-04 17:20:00,63.3,57.4,30.01,NNE,30,11.0,24.0,81,0.00,,,0.00,Wunderground v.1.15,2013-05-04 21:20:00,
2013-05-04 17:25:00,62.9,57.0,30.01,ENE,68,12.0,24.0,81,0.00,,,0.00,Wunderground v.1.15,2013-05-04 21:25:00,
2013-05-04 17:30:00,63.0,57.4,30.01,NE,52,11.0,11.0,82,0.00,,,0.00,Wunderground v.1.15,2013-05-04 21:30:00,
2013-05-04 17:40:00,62.9,57.0,30.01,ENE,65,11.0,11.0,81,0.00,,,0.00,Wunderground v.1.15,2013-05-04 21:40:00,
2013-05-04 17:45:00,63.0,57.4,30.01,ENE,67,10.0,16.0,82,0.00,,,0.00,Wunderground v.1.15,2013-05-04 21:45:00,
2013-05-04 17:50:00,62.8,57.2,30.01,NNE,32,9.0,9.0,82,0.00,,,0.00,Wunderground v.1.15,2013-05-04 21:50:00,
2013-05-04 17:55:00,62.7,57.1,30.01,North,357,9.0,14.0,82,0.00,,,0.00,Wunderground v.1.15,2013-05-04 21:55:00,
2013-05-04 18:00:00,62.6,57.4,30.01,NE,48,10.0,20.0,83,0.00,,,0.00,Wunderground v.1.15,2013-05-04 22:00:00,
2013-05-04 18:05:00,62.6,57.0,30.01,ESE,105,11.0,20.0,82,0.00,,,0.00,Wunderground v.1.15,2013-05-04 22:05:00,
2013-05-04 18:10:00,62.4,56.8,30.00,ENE,71,11.0,20.0,82,0.00,,,0.00,Wunderground v.1.15,2013-05-04 22:10:00,
2013-05-04 18:15:00,62.4,56.8,30.01,NE,53,11.0,20.0,82,0.00,,,0.00,Wunderground v.1.15,2013-05-04 22:15:00,
2013-05-04 18:20:00,62.4,57.2,30.01,ENE,72,12.0,12.0,83,0.00,,,0.00,Wunderground v.1.15,2013-05-04 22:20:00,
2013-05-04 18:25:00,62.3,56.7,30.00,East,98,13.0,15.0,82,0.00,,,0.00,Wunderground v.1.15,2013-05-04 22:25:00,
2013-05-04 18:30:00,62.4,57.2,30.00,North,354,11.0,11.0,83,0.00,,,0.00,Wunderground v.1.15,2013-05-04 22:30:00,
2013-05-04 18:35:00,62.3,57.1,30.00,NE,52,10.0,20.0,83,0.00,,,0.00,Wunderground v.1.15,2013-05-04 22:35:00,
2013-05-04 18:40:00,62.2,57.0,30.00,ENE,77,11.0,11.0,83,0.00,,,0.00,Wunderground v.1.15,2013-05-04 22:40:00,
2013-05-04 18:45:00,62.1,56.9,30.01,ENE,57,11.0,20.0,83,0.00,,,0.00,Wunderground v.1.15,2013-05-04 22:45:00,
2013-05-04 18:50:00,62.0,56.8,30.00,East,85,10.0,20.0,83,0.00,,,0.00,Wunderground v.1.15,2013-05-04 22:50:00,
2013-05-04 18:55:00,62.0,56.8,30.00,NNE,27,10.0,20.0,83,0.00,,,0.00,Wunderground v.1.15,2013-05-04 22:55:00,
2013-05-04 19:00:00,62.0,57.1,30.01,NNE,27,9.0,9.0,84,0.00,,,0.00,Wunderground v.1.15,2013-05-04 23:00:00,
2013-05-04 19:05:00,61.9,57.0,30.01,ENE,68,9.0,22.0,84,0.00,,,0.00,Wunderground v.1.15,2013-05-04 23:05:00,
2013-05-04 19:10:00,61.8,56.9,30.01,ENE,65,9.0,22.0,84,0.00,,,0.00,Wunderground v.1.15,2013-05-04 23:10:00,
2013-05-04 19:15:00,61.6,56.7,30.01,East,80,10.0,22.0,84,0.00,,,0.00,Wunderground v.1.15,2013-05-04 23:15:00,
2013-05-04 19:20:00,61.5,56.6,30.01,ENE,63,11.0,22.0,84,0.00,,,0.00,Wunderground v.1.15,2013-05-04 23:20:00,
2013-05-04 19:25:00,61.4,56.5,30.01,NE,48,10.0,22.0,84,0.00,,,0.00,Wunderground v.1.15,2013-05-04 23:25:00,
2013-05-04 19:30:00,61.3,56.8,30.01,NE,51,10.0,22.0,85,0.00,,,0.00,Wunderground v.1.15,2013-05-04 23:30:00,
2013-05-04 19:35:00,61.3,56.8,30.01,ENE,69,11.0,22.0,85,0.00,,,0.00,Wunderground v.1.15,2013-05-04 23:35:00,
2013-05-04 19:40:00,61.1,56.6,30.01,NE,45,11.0,11.0,85,0.00,,,0.00,Wunderground v.1.15,2013-05-04 23:40:00,
2013-05-04 19:45:00,61.0,56.5,30.01,ENE,73,11.0,22.0,85,0.00,,,0.00,Wunderground v.1.15,2013-05-04 23:45:00,
2013-05-04 19:50:00,60.8,56.3,30.01,ESE,108,11.0,22.0,85,0.00,,,0.00,Wunderground v.1.15,2013-05-04 23:50:00,
2013-05-04 20:00:00,60.7,56.5,30.02,NNE,18,11.0,11.0,86,0.00,,,0.00,Wunderground v.1.15,2013-05-05 00:00:00,
2013-05-04 20:05:00,60.5,56.3,30.01,NE,43,10.0,12.0,86,0.00,,,0.00,Wunderground v.1.15,2013-05-05 00:05:00,
2013-05-04 20:10:00,60.3,56.4,30.01,ENE,71,10.0,10.0,87,0.00,,,0.00,Wunderground v.1.15,2013-05-05 00:10:00,
2013-05-04 20:15:00,60.2,56.3,30.01,ENE,61,9.0,11.0,87,0.00,,,0.00,Wunderground v.1.15,2013-05-05 00:15:00,
2013-05-04 20:20:00,60.0,56.1,30.01,ENE,68,10.0,10.0,87,0.00,,,0.00,Wunderground v.1.15,2013-05-05 00:20:00,
2013-05-04 20:25:00,59.9,56.0,30.01,ENE,72,10.0,21.0,87,0.00,,,0.00,Wunderground v.1.15,2013-05-05 00:25:00,
2013-05-04 20:35:00,59.7,55.5,30.02,NE,40,10.0,21.0,86,0.00,,,0.00,Wunderground v.1.15,2013-05-05 00:35:00,
2013-05-04 20:40:00,59.7,55.5,30.02,NE,55,9.0,21.0,86,0.00,,,0.00,Wunderground v.1.15,2013-05-05 00:40:00,
2013-05-04 20:45:00,59.7,55.5,30.02,NNE,15,9.0,21.0,86,0.00,,,0.00,Wunderground v.1.15,2013-05-05 00:45:00,
2013-05-04 20:50:00,59.7,55.5,30.02,ENE,65,9.0,21.0,86,0.00,,,0.00,Wunderground v.1.15,2013-05-05 00:50:00,
2013-05-04 20:55:00,59.8,55.3,30.02,NE,53,10.0,21.0,85,0.00,,,0.00,Wunderground v.1.15,2013-05-05 00:55:00,
2013-05-04 21:00:00,59.9,55.7,30.03,NE,43,10.0,10.0,86,0.00,,,0.00,Wunderground v.1.15,2013-05-05 01:00:00,
2013-05-04 21:05:00,60.0,55.5,30.03,NE,54,9.0,12.0,85,0.00,,,0.00,Wunderground v.1.15,2013-05-05 01:05:00,
2013-05-04 21:10:00,60.0,55.5,30.03,ENE,60,10.0,17.0,85,0.00,,,0.00,Wunderground v.1.15,2013-05-05 01:10:00,
2013-05-04 21:15:00,60.0,55.5,30.03,NNW,331,10.0,17.0,85,0.00,,,0.00,Wunderground v.1.15,2013-05-05 01:15:00,
2013-05-04 21:20:00,60.0,55.5,30.03,NNE,32,11.0,11.0,85,0.00,,,0.00,Wunderground v.1.15,2013-05-05 01:20:00,
2013-05-04 21:25:00,59.9,55.4,30.03,East,89,11.0,17.0,85,0.00,,,0.00,Wunderground v.1.15,2013-05-05 01:25:00,
2013-05-04 21:30:00,59.9,55.4,30.03,East,92,11.0,17.0,85,0.00,,,0.00,Wunderground v.1.15,2013-05-05 01:30:00,
2013-05-04 21:35:00,59.8,55.0,30.03,NNE,32,11.0,17.0,84,0.00,,,0.00,Wunderground v.1.15,2013-05-05 01:35:00,
2013-05-04 21:40:00,59.8,55.0,30.03,NNE,32,11.0,11.0,84,0.00,,,0.00,Wunderground v.1.15,2013-05-05 01:40:00,
2013-05-04 21:45:00,59.8,55.0,30.03,ENE,72,10.0,17.0,84,0.00,,,0.00,Wunderground v.1.15,2013-05-05 01:45:00,
2013-05-04 21:50:00,59.7,54.9,30.03,NE,54,11.0,11.0,84,0.00,,,0.00,Wunderground v.1.15,2013-05-05 01:50:00,
2013-05-04 21:55:00,59.6,54.8,30.03,ENE,77,12.0,12.0,84,0.00,,,0.00,Wunderground v.1.15,2013-05-05 01:55:00,
2013-05-04 22:00:00,59.6,54.8,30.03,East,83,12.0,12.0,84,0.00,,,0.00,Wunderground v.1.15,2013-05-05 02:00:00,
2013-05-04 22:05:00,59.5,55.0,30.03,ENE,69,11.0,19.0,85,0.00,,,0.00,Wunderground v.1.15,2013-05-05 02:05:00,
2013-05-04 22:10:00,59.4,54.9,30.03,ENE,67,9.0,19.0,85,0.00,,,0.00,Wunderground v.1.15,2013-05-05 02:10:00,
2013-05-04 22:15:00,59.3,54.5,30.03,ENE,60,10.0,19.0,84,0.00,,,0.00,Wunderground v.1.15,2013-05-05 02:15:00,
2013-05-04 22:20:00,59.3,54.5,30.03,East,82,11.0,19.0,84,0.00,,,0.00,Wunderground v.1.15,2013-05-05 02:20:00,
2013-05-04 22:25:00,59.3,54.5,30.03,East,83,11.0,19.0,84,0.00,,,0.00,Wunderground v.1.15,2013-05-05 02:25:00,
2013-05-04 22:30:00,59.3,54.8,30.03,NNE,33,11.0,11.0,85,0.00,,,0.00,Wunderground v.1.15,2013-05-05 02:30:00,
2013-05-04 22:35:00,59.2,54.7,30.03,ENE,72,9.0,19.0,85,0.00,,,0.00,Wunderground v.1.15,2013-05-05 02:35:00,
2013-05-04 22:40:00,59.1,54.6,30.03,NE,50,10.0,19.0,85,0.00,,,0.00,Wunderground v.1.15,2013-05-05 02:40:00,
2013-05-04 22:45:00,58.9,54.4,30.03,ENE,61,10.0,19.0,85,0.00,,,0.00,Wunderground v.1.15,2013-05-05 02:45:00,
2013-05-04 22:50:00,58.8,54.3,30.03,NE,52,10.0,10.0,85,0.00,,,0.00,Wunderground v.1.15,2013-05-05 02:50:00,
2013-05-04 22:55:00,58.7,54.2,30.03,NE,56,11.0,11.0,85,0.00,,,0.00,Wunderground v.1.15,2013-05-05 02:55:00,
2013-05-04 23:00:00,58.6,54.1,30.02,ENE,71,11.0,19.0,85,0.00,,,0.00,Wunderground v.1.15,2013-05-05 03:00:00,
2013-05-04 23:05:00,58.6,54.1,30.02,ENE,73,10.0,19.0,85,0.00,,,0.00,Wunderground v.1.15,2013-05-05 03:05:00,
2013-05-04 23:15:00,58.4,53.9,30.02,NE,53,9.0,19.0,85,0.00,,,0.00,Wunderground v.1.15,2013-05-05 03:15:00,
2013-05-04 23:20:00,58.2,54.0,30.02,NE,50,9.0,9.0,86,0.00,,,0.00,Wunderground v.1.15,2013-05-05 03:20:00,
2013-05-04 23:25:00,58.1,53.9,30.02,ENE,63,9.0,12.0,86,0.00,,,0.00,Wunderground v.1.15,2013-05-05 03:25:00,
2013-05-04 23:30:00,58.0,53.8,30.02,NE,41,9.0,9.0,86,0.00,,,0.00,Wunderground v.1.15,2013-05-05 03:30:00,
2013-05-04 23:35:00,57.8,53.6,30.02,ENE,68,9.0,12.0,86,0.00,,,0.00,Wunderground v.1.15,2013-05-05 03:35:00,
2013-05-04 23:45:00,57.6,53.4,30.01,NE,50,10.0,11.0,86,0.00,,,0.00,Wunderground v.1.15,2013-05-05 03:45:00,
2013-05-04 23:50:00,57.6,53.4,30.01,NNW,331,9.0,9.0,86,0.00,,,0.00,Wunderground v.1.15,2013-05-05 03:50:00,
2013-05-04 23:55:00,57.5,53.7,30.01,NNW,335,9.0,19.0,87,0.00,,,0.00,Wunderground v.1.15,2013-05-05 03:55:00,